| time (UTC) | temp F | wind direction | speed MPH | gust MPH | rain 1hr in | rain 24hr in | rain mn in | humidity % | barometer mb |
| 20260906111536 | 71 | 97 | 1.0 | 2.0 | 0.00 | 0.00 | 0.00 | 89 | 1015.9 |
| 20260906111031 | 72 | 309 | 2.0 | 4.0 | 0.00 | 0.00 | 0.00 | 89 | 1016.0 |
| 20260906110526 | 72 | 331 | 2.0 | 4.0 | 0.00 | 0.00 | 0.00 | 89 | 1015.7 |
| 20260906110025 | 72 | 5 | 2.0 | 3.0 | 0.00 | 0.00 | 0.00 | 90 | 1015.9 |
| 20260906105520 | 72 | 293 | 1.0 | 3.0 | 0.00 | 0.00 | 0.00 | 90 | 1015.8 |
| 20260906105016 | 72 | 19 | 1.0 | 2.0 | 0.00 | 0.00 | 0.00 | 90 | 1015.8 |
| 20260906104515 | 72 | 324 | 2.0 | 4.0 | 0.00 | 0.00 | 0.00 | 90 | 1015.9 |
| 20260906104015 | 72 | 18 | 3.0 | 4.0 | 0.00 | 0.00 | 0.00 | 90 | 1016.0 |
| 20260906103513 | 72 | 357 | 3.0 | 4.0 | 0.00 | 0.00 | 0.00 | 91 | 1015.9 |
| 20260906103008 | 72 | 52 | 2.0 | 3.0 | 0.00 | 0.00 | 0.00 | 91 | 1015.9 |
| 20260906102509 | 72 | 7 | 1.0 | 3.0 | 0.00 | 0.00 | 0.00 | 91 | 1015.6 |
| 20260906102008 | 72 | 331 | 2.0 | 3.0 | 0.00 | 0.00 | 0.00 | 91 | 1015.8 |
| 20260906101503 | 72 | 330 | 2.0 | 6.0 | 0.00 | 0.00 | 0.00 | 91 | 1015.7 |
| 20260906100959 | 72 | 4 | 2.0 | 2.0 | 0.00 | 0.00 | 0.00 | 91 | 1015.5 |
| 20260906100454 | 72 | 350 | 2.0 | 7.0 | 0.00 | 0.00 | 0.00 | 91 | 1015.7 |
| 20260906095954 | 72 | 33 | 3.0 | 4.0 | 0.00 | 0.00 | 0.00 | 91 | 1015.6 |
| 20260906095449 | 72 | 21 | 2.0 | 8.0 | 0.00 | 0.00 | 0.00 | 91 | 1015.5 |
| 20260906094944 | 72 | 40 | 2.0 | 4.0 | 0.00 | 0.00 | 0.00 | 91 | 1015.6 |
| 20260906094443 | 72 | 18 | 4.0 | 6.0 | 0.00 | 0.00 | 0.00 | 91 | 1015.6 |
| 20260906093939 | 72 | 28 | 2.0 | 4.0 | 0.00 | 0.00 | 0.00 | 91 | 1015.7 |
| 20260906093436 | 72 | 293 | 3.0 | 6.0 | 0.00 | 0.00 | 0.00 | 91 | 1015.7 |
| 20260906092936 | 72 | 32 | 4.0 | 6.0 | 0.00 | 0.00 | 0.00 | 91 | 1015.7 |
| 20260906092435 | 72 | 51 | 3.0 | 7.0 | 0.00 | 0.00 | 0.00 | 90 | 1015.6 |
| 20260906091931 | 72 | 64 | 3.0 | 6.0 | 0.00 | 0.00 | 0.00 | 90 | 1015.7 |
| 20260906091427 | 72 | 54 | 3.0 | 4.0 | 0.00 | 0.00 | 0.00 | 89 | 1015.5 |
| 20260906090923 | 72 | 18 | 3.0 | 4.0 | 0.00 | 0.00 | 0.00 | 89 | 1015.7 |
| 20260906090418 | 72 | 48 | 4.0 | 7.0 | 0.00 | 0.00 | 0.00 | 89 | 1015.6 |
| 20260906085912 | 72 | 13 | 4.0 | 6.0 | 0.00 | 0.00 | 0.00 | 89 | 1015.6 |
| 20260906085412 | 72 | 327 | 3.0 | 6.0 | 0.00 | 0.00 | 0.00 | 89 | 1015.4 |
| 20260906084911 | 72 | 16 | 3.0 | 4.0 | 0.00 | 0.00 | 0.00 | 88 | 1015.4 |
| 20260906084406 | 71 | 27 | 2.0 | 4.0 | 0.00 | 0.00 | 0.00 | 88 | 1015.4 |
| 20260906083900 | 71 | 346 | 2.0 | 3.0 | 0.00 | 0.00 | 0.00 | 88 | 1015.5 |
| 20260906083356 | 71 | 19 | 4.0 | 6.0 | 0.00 | 0.00 | 0.00 | 88 | 1015.6 |
| 20260906082855 | 72 | 57 | 2.0 | 6.0 | 0.00 | 0.00 | 0.00 | 88 | 1015.5 |
| 20260906082350 | 72 | 45 | 5.0 | 8.0 | 0.00 | 0.00 | 0.00 | 87 | 1015.5 |
| 20260906081846 | 72 | 348 | 4.0 | 6.0 | 0.00 | 0.00 | 0.00 | 87 | 1015.4 |
| 20260906081342 | 72 | 30 | 3.0 | 4.0 | 0.00 | 0.00 | 0.00 | 87 | 1015.5 |
| 20260906080837 | 72 | 5 | 4.0 | 7.0 | 0.00 | 0.00 | 0.00 | 86 | 1015.3 |
| 20260906080333 | 72 | 9 | 3.0 | 3.0 | 0.00 | 0.00 | 0.00 | 86 | 1015.3 |
| 20260906075828 | 72 | 307 | 1.0 | 4.0 | 0.00 | 0.00 | 0.00 | 85 | 1015.4 |
| 20260906075328 | 72 | 49 | 2.0 | 3.0 | 0.00 | 0.00 | 0.00 | 85 | 1015.1 |
| 20260906074823 | 73 | 275 | 3.0 | 4.0 | 0.00 | 0.00 | 0.00 | 85 | 1015.3 |
| 20260906074323 | 73 | 353 | 2.0 | 7.0 | 0.00 | 0.00 | 0.00 | 85 | 1015.3 |
| 20260906073821 | 73 | 326 | 2.0 | 6.0 | 0.00 | 0.00 | 0.00 | 84 | 1015.3 |
| 20260906073316 | 73 | 5 | 2.0 | 2.0 | 0.00 | 0.00 | 0.00 | 84 | 1015.2 |
| 20260906072813 | 73 | 349 | 2.0 | 4.0 | 0.00 | 0.00 | 0.00 | 84 | 1015.1 |
| 20260906072308 | 73 | 307 | 1.0 | 3.0 | 0.00 | 0.00 | 0.00 | 84 | 1015.3 |
| 20260906071804 | 74 | 270 | 2.0 | 2.0 | 0.00 | 0.00 | 0.00 | 84 | 1015.4 |
| 20260906071304 | 74 | 347 | 1.0 | 2.0 | 0.00 | 0.00 | 0.00 | 84 | 1015.2 |
| 20260906070801 | 74 | 350 | 3.0 | 3.0 | 0.00 | 0.00 | 0.00 | 84 | 1015.2 |
| 20260906070256 | 74 | 285 | 1.0 | 2.0 | 0.00 | 0.00 | 0.00 | 84 | 1015.3 |
| 20260906065755 | 74 | 309 | 1.0 | 2.0 | 0.00 | 0.00 | 0.00 | 84 | 1015.3 |
| 20260906065251 | 74 | 305 | 1.0 | 6.0 | 0.00 | 0.00 | 0.00 | 83 | 1015.3 |
| 20260906064747 | 75 | 3 | 1.0 | 2.0 | 0.00 | 0.00 | 0.00 | 83 | 1015.4 |
| 20260906064242 | 75 | 50 | 2.0 | 4.0 | 0.00 | 0.00 | 0.00 | 83 | 1015.2 |
| 20260906063732 | 75 | 300 | 1.0 | 2.0 | 0.00 | 0.00 | 0.00 | 82 | 1015.4 |
| 20260906063227 | 75 | 14 | 3.0 | 4.0 | 0.00 | 0.00 | 0.00 | 82 | 1015.4 |
| 20260906062722 | 75 | 296 | 2.0 | 3.0 | 0.00 | 0.00 | 0.00 | 82 | 1015.4 |
| 20260906062221 | 76 | 298 | 1.0 | 3.0 | 0.00 | 0.00 | 0.00 | 82 | 1015.6 |
| 20260906061718 | 76 | 3 | 3.0 | 4.0 | 0.00 | 0.00 | 0.00 | 81 | 1015.7 |
| 20260906061213 | 76 | 11 | 2.0 | 3.0 | 0.00 | 0.00 | 0.00 | 81 | 1015.5 |
| 20260906060708 | 76 | 208 | 1.0 | 3.0 | 0.00 | 0.00 | 0.00 | 80 | 1015.6 |
| 20260906060205 | 76 | 328 | 2.0 | 2.0 | 0.00 | 0.00 | 0.00 | 80 | 1015.5 |
| 20260906055700 | 77 | 307 | 1.0 | 3.0 | 0.00 | 0.00 | 0.00 | 80 | 1015.4 |
| 20260906055155 | 77 | 3 | 2.0 | 3.0 | 0.00 | 0.00 | 0.00 | 79 | 1015.4 |
| 20260906054651 | 77 | 294 | 1.0 | 2.0 | 0.00 | 0.00 | 0.00 | 79 | 1015.3 |
| 20260906054146 | 77 | 297 | 0.0 | 2.0 | 0.00 | 0.00 | 0.00 | 78 | 1015.3 |
| 20260906053643 | 77 | 352 | 2.0 | 3.0 | 0.00 | 0.00 | 0.00 | 78 | 1015.4 |
| 20260906053137 | 77 | 306 | 1.0 | 2.0 | 0.00 | 0.00 | 0.00 | 78 | 1015.6 |
| 20260906052633 | 77 | 11 | 3.0 | 7.0 | 0.00 | 0.00 | 0.00 | 78 | 1015.6 |
| 20260906052129 | 78 | 57 | 4.0 | 6.0 | 0.00 | 0.00 | 0.00 | 78 | 1015.5 |
| 20260906051625 | 78 | 38 | 4.0 | 6.0 | 0.00 | 0.00 | 0.00 | 78 | 1015.5 |
| 20260906051120 | 78 | 70 | 5.0 | 6.0 | 0.00 | 0.00 | 0.00 | 78 | 1015.3 |
| 20260906050616 | 78 | 8 | 2.0 | 3.0 | 0.00 | 0.00 | 0.00 | 78 | 1015.5 |
| 20260906050111 | 78 | 4 | 2.0 | 4.0 | 0.00 | 0.13 | 0.13 | 78 | 1015.4 |
| 20260906045609 | 79 | 58 | 2.0 | 6.0 | 0.00 | 0.13 | 0.13 | 78 | 1015.4 |
| 20260906045104 | 79 | 58 | 2.0 | 6.0 | 0.00 | 0.13 | 0.13 | 78 | 1015.2 |
| 20260906044600 | 79 | 359 | 3.0 | 6.0 | 0.00 | 0.13 | 0.13 | 77 | 1015.2 |
| 20260906044055 | 79 | 319 | 3.0 | 4.0 | 0.00 | 0.13 | 0.13 | 77 | 1015.3 |
| 20260906043551 | 80 | 307 | 1.0 | 3.0 | 0.00 | 0.13 | 0.13 | 76 | 1015.2 |
| 20260906043047 | 80 | 336 | 2.0 | 3.0 | 0.00 | 0.13 | 0.13 | 76 | 1015.2 |
| 20260906042545 | 80 | 38 | 4.0 | 4.0 | 0.00 | 0.13 | 0.13 | 75 | 1015.1 |
| 20260906042040 | 80 | 17 | 2.0 | 3.0 | 0.00 | 0.13 | 0.13 | 75 | 1015.1 |
| 20260906041536 | 80 | 31 | 2.0 | 3.0 | 0.00 | 0.13 | 0.13 | 75 | 1015.2 |
| 20260906041031 | 80 | 301 | 2.0 | 4.0 | 0.00 | 0.13 | 0.13 | 75 | 1015.1 |
| 20260906040526 | 81 | 45 | 6.0 | 7.0 | 0.00 | 0.13 | 0.13 | 75 | 1014.9 |
| 20260906040022 | 81 | 18 | 2.0 | 3.0 | 0.00 | 0.13 | 0.13 | 75 | 1014.9 |
| 20260906035517 | 81 | 36 | 1.0 | 4.0 | 0.00 | 0.13 | 0.13 | 75 | 1014.8 |
| 20260906035013 | 81 | 307 | 2.0 | 8.0 | 0.00 | 0.13 | 0.13 | 75 | 1014.8 |
| 20260906034513 | 82 | 50 | 2.0 | 8.0 | 0.00 | 0.13 | 0.13 | 75 | 1014.8 |
| 20260906034008 | 82 | 28 | 5.0 | 9.0 | 0.00 | 0.13 | 0.13 | 75 | 1014.8 |
| 20260906033503 | 82 | 14 | 4.0 | 9.0 | 0.00 | 0.13 | 0.13 | 75 | 1014.9 |
| 20260906032958 | 82 | 11 | 7.0 | 8.0 | 0.00 | 0.13 | 0.13 | 76 | 1014.5 |
| 20260906032454 | 82 | 347 | 3.0 | 7.0 | 0.00 | 0.13 | 0.13 | 76 | 1014.5 |
| 20260906031954 | 82 | 260 | 4.0 | 8.0 | 0.00 | 0.13 | 0.13 | 76 | 1014.6 |
| 20260906031450 | 83 | 18 | 5.0 | 8.0 | 0.00 | 0.13 | 0.13 | 76 | 1014.5 |
| 20260906030945 | 83 | 33 | 6.0 | 8.0 | 0.00 | 0.13 | 0.13 | 76 | 1014.4 |
| 20260906030439 | 83 | 345 | 1.0 | 6.0 | 0.00 | 0.13 | 0.13 | 76 | 1014.4 |
| 20260906025934 | 83 | 332 | 2.0 | 3.0 | 0.00 | 0.13 | 0.13 | 75 | 1014.3 |
| 20260906025428 | 84 | 355 | 2.0 | 6.0 | 0.00 | 0.13 | 0.13 | 76 | 1014.3 |
| 20260906024927 | 84 | 350 | 3.0 | 4.0 | 0.00 | 0.13 | 0.13 | 75 | 1014.3 |
| 20260906024426 | 84 | 33 | 2.0 | 4.0 | 0.00 | 0.13 | 0.13 | 74 | 1014.2 |
| 20260906023921 | 84 | 302 | 3.0 | 4.0 | 0.00 | 0.13 | 0.13 | 74 | 1014.2 |
| 20260906023418 | 84 | 29 | 3.0 | 4.0 | 0.00 | 0.13 | 0.13 | 73 | 1013.9 |
| 20260906022918 | 85 | 324 | 1.0 | 4.0 | 0.00 | 0.13 | 0.13 | 73 | 1013.7 |
| 20260906022413 | 85 | 326 | 2.0 | 3.0 | 0.00 | 0.13 | 0.13 | 72 | 1013.9 |
| 20260906021908 | 85 | 264 | 0.0 | 1.0 | 0.00 | 0.13 | 0.13 | 72 | 1013.7 |
| 20260906021403 | 85 | 32 | 1.0 | 1.0 | 0.00 | 0.13 | 0.13 | 71 | 1013.5 |
| 20260906020857 | 86 | 296 | 0.0 | 1.0 | 0.00 | 0.13 | 0.13 | 71 | 1013.5 |
| 20260906020356 | 86 | 331 | 1.0 | 2.0 | 0.00 | 0.13 | 0.13 | 70 | 1013.4 |
| 20260906015851 | 86 | 259 | 1.0 | 2.0 | 0.00 | 0.13 | 0.13 | 70 | 1013.5 |
| 20260906015350 | 86 | 313 | 0.0 | 0.0 | 0.00 | 0.13 | 0.13 | 69 | 1013.4 |
| 20260906014845 | 86 | 260 | 0.0 | 1.0 | 0.00 | 0.13 | 0.13 | 69 | 1013.5 |
| 20260906014344 | 86 | 264 | 0.0 | 1.0 | 0.00 | 0.13 | 0.13 | 68 | 1013.6 |
| 20260906013841 | 87 | 288 | 0.0 | 1.0 | 0.00 | 0.13 | 0.13 | 67 | 1013.2 |
| 20260906013336 | 87 | 277 | 0.0 | 0.0 | 0.00 | 0.13 | 0.13 | 67 | 1013.2 |
| 20260906012831 | 87 | 270 | 0.0 | 1.0 | 0.00 | 0.13 | 0.13 | 66 | 1013.2 |
| 20260906012326 | 87 | 265 | 0.0 | 0.0 | 0.00 | 0.13 | 0.13 | 66 | 1013.1 |
| 20260906011826 | 88 | 266 | 0.0 | 0.0 | 0.00 | 0.13 | 0.13 | 65 | 1013.2 |
| 20260906011321 | 88 | 262 | 0.0 | 0.0 | 0.00 | 0.13 | 0.13 | 65 | 1013.0 |
| 20260906010817 | 88 | 275 | 0.0 | 0.0 | 0.00 | 0.13 | 0.13 | 64 | 1013.3 |
| 20260906010313 | 89 | 232 | 0.0 | 0.0 | 0.00 | 0.13 | 0.13 | 63 | 1013.2 |
| 20260906005808 | 89 | 294 | 0.0 | 0.0 | 0.00 | 0.13 | 0.13 | 63 | 1013.0 |
| 20260906005307 | 89 | 326 | 0.0 | 0.0 | 0.00 | 0.13 | 0.13 | 62 | 1012.8 |
| 20260906004806 | 89 | 264 | 0.0 | 0.0 | 0.00 | 0.13 | 0.13 | 62 | 1012.9 |
| 20260906004306 | 90 | 261 | 0.0 | 0.0 | 0.00 | 0.13 | 0.13 | 61 | 1012.8 |
| 20260906003801 | 90 | 283 | 0.0 | 0.0 | 0.00 | 0.13 | 0.13 | 60 | 1012.8 |
| 20260906003257 | 91 | 289 | 0.0 | 0.0 | 0.00 | 0.13 | 0.13 | 59 | 1012.8 |
| 20260906002752 | 91 | 280 | 0.0 | 0.0 | 0.00 | 0.13 | 0.13 | 59 | 1012.7 |
| 20260906002246 | 92 | 269 | 0.0 | 0.0 | 0.00 | 0.13 | 0.13 | 58 | 1012.5 |
| 20260906001742 | 93 | 262 | 0.0 | 0.0 | 0.00 | 0.13 | 0.13 | 57 | 1012.7 |
| 20260906001236 | 93 | 253 | 0.0 | 0.0 | 0.00 | 0.13 | 0.13 | 57 | 1012.7 |
| 20260906000732 | 94 | 287 | 0.0 | 0.0 | 0.00 | 0.13 | 0.13 | 55 | 1012.7 |
| 20260906000226 | 95 | 257 | 0.0 | 0.0 | 0.00 | 0.13 | 0.13 | 55 | 1012.8 |
| 20260905235721 | 96 | 268 | 0.0 | 0.0 | 0.00 | 0.13 | 0.13 | 54 | 1013.0 |
| 20260905235216 | 97 | 258 | 0.0 | 0.0 | 0.00 | 0.13 | 0.13 | 53 | 1013.0 |
| 20260905234712 | 98 | 266 | 0.0 | 1.0 | 0.00 | 0.13 | 0.13 | 52 | 1012.9 |
| 20260905234207 | 99 | 269 | 0.0 | 0.0 | 0.00 | 0.13 | 0.13 | 50 | 1012.9 |
| 20260905233701 | 100 | 268 | 0.0 | 2.0 | 0.00 | 0.13 | 0.13 | 49 | 1012.8 |
| 20260905233200 | 101 | 287 | 0.0 | 1.0 | 0.00 | 0.13 | 0.13 | 47 | 1012.8 |
| 20260905232655 | 102 | 254 | 0.0 | 1.0 | 0.00 | 0.13 | 0.13 | 47 | 1012.8 |
| 20260905232151 | 102 | 296 | 0.0 | 1.0 | 0.00 | 0.13 | 0.13 | 47 | 1012.9 |
| 20260905231647 | 102 | 296 | 0.0 | 1.0 | 0.00 | 0.13 | 0.13 | 46 | 1012.8 |
| 20260905231143 | 103 | 265 | 0.0 | 2.0 | 0.00 | 0.13 | 0.13 | 45 | 1012.6 |
| 20260905230633 | 104 | 266 | 0.0 | 0.0 | 0.00 | 0.13 | 0.13 | 45 | 1012.4 |
| 20260905230131 | 104 | 287 | 1.0 | 2.0 | 0.00 | 0.13 | 0.13 | 44 | 1012.5 |
| 20260905225630 | 104 | 270 | 0.0 | 1.0 | 0.00 | 0.13 | 0.13 | 44 | 1012.4 |
| 20260905225120 | 104 | 260 | 0.0 | 0.0 | 0.00 | 0.13 | 0.13 | 44 | 1012.4 |
| 20260905224620 | 104 | 267 | 0.0 | 1.0 | 0.00 | 0.13 | 0.13 | 43 | 1012.4 |
| 20260905224119 | 104 | 283 | 0.0 | 0.0 | 0.00 | 0.13 | 0.13 | 43 | 1012.3 |
| 20260905223616 | 105 | 291 | 1.0 | 2.0 | 0.00 | 0.13 | 0.13 | 42 | 1012.6 |
| 20260905223113 | 106 | 261 | 0.0 | 0.0 | 0.00 | 0.13 | 0.13 | 41 | 1012.7 |
| 20260905222612 | 108 | 253 | 0.0 | 1.0 | 0.00 | 0.13 | 0.13 | 39 | 1012.4 |
| 20260905222107 | 110 | 256 | 0.0 | 1.0 | 0.00 | 0.13 | 0.13 | 38 | 1012.5 |
| 20260905221603 | 112 | 258 | 1.0 | 2.0 | 0.00 | 0.13 | 0.13 | 37 | 1012.5 |
| 20260905221059 | 112 | 318 | 1.0 | 2.0 | 0.00 | 0.13 | 0.13 | 38 | 1012.3 |
| 20260905220554 | 113 | 268 | 1.0 | 1.0 | 0.00 | 0.13 | 0.13 | 37 | 1012.3 |
| 20260905220051 | 115 | 293 | 1.0 | 2.0 | 0.00 | 0.13 | 0.13 | 35 | 1012.5 |
| 20260905215550 | 117 | 319 | 1.0 | 2.0 | 0.00 | 0.13 | 0.13 | 34 | 1012.2 |
| 20260905215046 | 116 | 327 | 0.0 | 3.0 | 0.00 | 0.13 | 0.13 | 35 | 1012.5 |
| 20260905214542 | 115 | 267 | 1.0 | 3.0 | 0.00 | 0.13 | 0.13 | 35 | 1012.4 |
| 20260905214037 | 116 | 251 | 0.0 | 0.0 | 0.00 | 0.13 | 0.13 | 37 | 1012.6 |
| 20260905213532 | 114 | 255 | 0.0 | 0.0 | 0.00 | 0.13 | 0.13 | 39 | 1012.4 |
| 20260905213027 | 111 | 269 | 0.0 | 1.0 | 0.00 | 0.13 | 0.13 | 41 | 1012.5 |
| 20260905212522 | 107 | 257 | 0.0 | 0.0 | 0.00 | 0.13 | 0.13 | 45 | 1012.5 |
| 20260905212021 | 102 | 263 | 0.0 | 1.0 | 0.00 | 0.13 | 0.13 | 51 | 1012.5 |
| 20260905211517 | 98 | 245 | 0.0 | 1.0 | 0.00 | 0.13 | 0.13 | 54 | 1012.6 |
| 20260905211013 | 94 | 254 | 0.0 | 1.0 | 0.00 | 0.13 | 0.13 | 61 | 1012.7 |
| 20260905210508 | 93 | 257 | 0.0 | 1.0 | 0.00 | 0.13 | 0.13 | 62 | 1012.4 |
| 20260905210009 | 92 | 242 | 0.0 | 1.0 | 0.00 | 0.13 | 0.13 | 63 | 1012.8 |
| 20260905205508 | 91 | 257 | 0.0 | 1.0 | 0.00 | 0.13 | 0.13 | 64 | 1012.8 |
| 20260905205007 | 89 | 243 | 0.0 | 1.0 | 0.00 | 0.13 | 0.13 | 65 | 1013.0 |
| 20260905204503 | 88 | 236 | 0.0 | 1.0 | 0.00 | 0.13 | 0.13 | 68 | 1013.1 |
| 20260905204002 | 87 | 190 | 3.0 | 3.0 | 0.00 | 0.13 | 0.13 | 71 | 1013.1 |
| 20260905203458 | 86 | 253 | 0.0 | 1.0 | 0.00 | 0.13 | 0.13 | 70 | 1013.2 |
| 20260905202953 | 85 | 239 | 0.0 | 2.0 | 0.00 | 0.13 | 0.13 | 72 | 1013.2 |
| 20260905202448 | 85 | 242 | 0.0 | 0.0 | 0.00 | 0.13 | 0.13 | 72 | 1013.3 |
| 20260905201943 | 85 | 254 | 0.0 | 0.0 | 0.00 | 0.13 | 0.13 | 72 | 1013.2 |
| 20260905201438 | 84 | 351 | 1.0 | 2.0 | 0.00 | 0.13 | 0.13 | 71 | 1013.2 |
| 20260905200933 | 84 | 251 | 0.0 | 1.0 | 0.00 | 0.13 | 0.13 | 72 | 1013.4 |
| 20260905200429 | 84 | 272 | 0.0 | 1.0 | 0.00 | 0.13 | 0.13 | 72 | 1013.5 |
| 20260905195926 | 83 | 265 | 0.0 | 1.0 | 0.00 | 0.13 | 0.13 | 72 | 1013.3 |
| 20260905195417 | 83 | 252 | 0.0 | 0.0 | 0.00 | 0.13 | 0.13 | 71 | 1013.5 |
| 20260905194912 | 82 | 250 | 0.0 | 6.0 | 0.00 | 0.13 | 0.13 | 72 | 1013.8 |
| 20260905194412 | 82 | 274 | 0.0 | 1.0 | 0.00 | 0.13 | 0.13 | 72 | 1013.6 |
| 20260905193911 | 81 | 257 | 0.0 | 6.0 | 0.07 | 0.13 | 0.13 | 72 | 1013.7 |
| 20260905193406 | 82 | 90 | 1.0 | 13.0 | 0.73 | 0.13 | 0.13 | 69 | 1013.9 |
| 20260905192902 | 86 | 97 | 3.0 | 7.0 | 0.66 | 0.11 | 0.11 | 64 | 1014.1 |
| 20260905192357 | 88 | 18 | 2.0 | 8.0 | 0.05 | 0.01 | 0.01 | 58 | 1014.4 |
| 20260905191857 | 91 | 76 | 2.0 | 13.0 | 0.00 | 0.00 | 0.00 | 55 | 1014.2 |
| 20260905191356 | 94 | 45 | 7.0 | 9.0 | 0.00 | 0.00 | 0.00 | 52 | 1014.0 |
| 20260905190856 | 98 | 323 | 7.0 | 10.0 | 0.00 | 0.00 | 0.00 | 46 | 1014.0 |
| 20260905190354 | 100 | 359 | 7.0 | 13.0 | 0.00 | 0.00 | 0.00 | 43 | 1013.9 |
| 20260905185853 | 100 | 282 | 1.0 | 2.0 | 0.00 | 0.00 | 0.00 | 44 | 1013.4 |
| 20260905185348 | 100 | 295 | 2.0 | 3.0 | 0.00 | 0.00 | 0.00 | 45 | 1013.3 |
| 20260905184847 | 99 | 310 | 3.0 | 7.0 | 0.00 | 0.00 | 0.00 | 45 | 1013.5 |
| 20260905184347 | 98 | 344 | 3.0 | 6.0 | 0.00 | 0.00 | 0.00 | 45 | 1013.6 |
| 20260905183840 | 98 | 193 | 2.0 | 3.0 | 0.00 | 0.00 | 0.00 | 45 | 1013.6 |
| 20260905183335 | 97 | 252 | 1.0 | 2.0 | 0.00 | 0.00 | 0.00 | 46 | 1013.7 |
| 20260905182830 | 97 | 247 | 1.0 | 4.0 | 0.00 | 0.00 | 0.00 | 47 | 1013.7 |
| 20260905182329 | 96 | 16 | 2.0 | 3.0 | 0.00 | 0.00 | 0.00 | 47 | 1013.6 |
| 20260905181825 | 96 | 270 | 5.0 | 6.0 | 0.00 | 0.00 | 0.00 | 47 | 1013.9 |
| 20260905181324 | 96 | 56 | 6.0 | 8.0 | 0.00 | 0.00 | 0.00 | 48 | 1013.7 |
| 20260905180823 | 96 | 249 | 0.0 | 2.0 | 0.00 | 0.00 | 0.00 | 50 | 1013.9 |
| 20260905180319 | 96 | 239 | 4.0 | 7.0 | 0.00 | 0.00 | 0.00 | 50 | 1014.0 |
| 20260905175814 | 95 | 357 | 4.0 | 6.0 | 0.00 | 0.00 | 0.00 | 51 | 1014.2 |
| 20260905175308 | 95 | 208 | 2.0 | 3.0 | 0.00 | 0.00 | 0.00 | 51 | 1014.1 |
| 20260905174803 | 95 | 353 | 5.0 | 6.0 | 0.00 | 0.00 | 0.00 | 52 | 1014.2 |
| 20260905174259 | 95 | 275 | 2.0 | 4.0 | 0.00 | 0.00 | 0.00 | 52 | 1014.2 |
| 20260905173755 | 94 | 239 | 0.0 | 1.0 | 0.00 | 0.00 | 0.00 | 53 | 1014.0 |
| 20260905173251 | 94 | 251 | 3.0 | 4.0 | 0.00 | 0.00 | 0.00 | 53 | 1014.1 |
| 20260905172750 | 94 | 249 | 0.0 | 1.0 | 0.00 | 0.00 | 0.00 | 54 | 1014.2 |
| 20260905172249 | 94 | 301 | 2.0 | 3.0 | 0.00 | 0.00 | 0.00 | 54 | 1014.3 |
| 20260905171745 | 93 | 291 | 2.0 | 2.0 | 0.00 | 0.00 | 0.00 | 55 | 1014.1 |
| 20260905171241 | 93 | 15 | 1.0 | 2.0 | 0.00 | 0.00 | 0.00 | 55 | 1014.4 |
| 20260905170738 | 93 | 313 | 2.0 | 3.0 | 0.00 | 0.00 | 0.00 | 55 | 1014.5 |
| 20260905170233 | 93 | 237 | 1.0 | 3.0 | 0.00 | 0.00 | 0.00 | 55 | 1014.3 |
| 20260905165732 | 93 | 240 | 1.0 | 2.0 | 0.00 | 0.00 | 0.00 | 54 | 1014.6 |
| 20260905165228 | 93 | 249 | 0.0 | 2.0 | 0.00 | 0.00 | 0.00 | 55 | 1014.5 |
| 20260905164727 | 93 | 246 | 1.0 | 4.0 | 0.00 | 0.00 | 0.00 | 55 | 1014.8 |
| 20260905164222 | 93 | 241 | 1.0 | 3.0 | 0.00 | 0.00 | 0.00 | 55 | 1014.9 |
| 20260905163718 | 93 | 251 | 0.0 | 0.0 | 0.00 | 0.00 | 0.00 | 55 | 1014.6 |
| 20260905163214 | 92 | 235 | 0.0 | 0.0 | 0.00 | 0.00 | 0.00 | 56 | 1014.8 |
| 20260905162711 | 92 | 235 | 0.0 | 0.0 | 0.00 | 0.00 | 0.00 | 56 | 1014.8 |
| 20260905162210 | 92 | 235 | 0.0 | 0.0 | 0.00 | 0.00 | 0.00 | 56 | 1015.0 |
| 20260905161705 | 92 | 235 | 0.0 | 0.0 | 0.00 | 0.00 | 0.00 | 56 | 1015.0 |
| 20260905161203 | 91 | 235 | 0.0 | 0.0 | 0.00 | 0.00 | 0.00 | 56 | 1014.9 |
| 20260905160702 | 91 | 301 | 1.0 | 1.0 | 0.00 | 0.00 | 0.00 | 57 | 1014.8 |
| 20260905160156 | 91 | 244 | 2.0 | 2.0 | 0.00 | 0.00 | 0.00 | 59 | 1014.8 |
| 20260905155655 | 91 | 218 | 1.0 | 1.0 | 0.00 | 0.00 | 0.00 | 59 | 1014.9 |
| 20260905155155 | 90 | 218 | 1.0 | 1.0 | 0.00 | 0.00 | 0.00 | 59 | 1014.9 |
| 20260905154644 | 90 | 218 | 1.0 | 1.0 | 0.00 | 0.00 | 0.00 | 59 | 1015.0 |
| 20260905154139 | 90 | 218 | 1.0 | 1.0 | 0.00 | 0.00 | 0.00 | 59 | 1015.0 |
| 20260905153635 | 90 | 218 | 1.0 | 1.0 | 0.00 | 0.00 | 0.00 | 60 | 1015.1 |
| 20260905153131 | 89 | 218 | 1.0 | 1.0 | 0.00 | 0.00 | 0.00 | 61 | 1014.9 |
| 20260905152625 | 89 | 218 | 1.0 | 1.0 | 0.00 | 0.00 | 0.00 | 60 | 1014.9 |
| 20260905152120 | 88 | 218 | 1.0 | 1.0 | 0.00 | 0.00 | 0.00 | 63 | 1015.0 |
| 20260905151615 | 88 | 218 | 1.0 | 1.0 | 0.00 | 0.00 | 0.00 | 63 | 1015.1 |
| 20260905151111 | 88 | 218 | 1.0 | 1.0 | 0.00 | 0.00 | 0.00 | 63 | 1015.2 |
| 20260905150606 | 88 | 260 | 1.0 | 3.0 | 0.00 | 0.00 | 0.00 | 63 | 1015.2 |
| 20260905145557 | 86 | 266 | 1.0 | 1.0 | 0.00 | 0.00 | 0.00 | 67 | 1015.0 |
| 20260905145056 | 86 | 266 | 1.0 | 1.0 | 0.00 | 0.00 | 0.00 | 69 | 1015.1 |
| 20260905144551 | 85 | 266 | 1.0 | 1.0 | 0.00 | 0.00 | 0.00 | 71 | 1015.1 |
| 20260905144049 | 85 | 266 | 1.0 | 1.0 | 0.00 | 0.00 | 0.00 | 72 | 1014.9 |
| 20260905143544 | 85 | 266 | 1.0 | 1.0 | 0.00 | 0.00 | 0.00 | 72 | 1015.0 |
| 20260905143039 | 84 | 266 | 1.0 | 1.0 | 0.00 | 0.00 | 0.00 | 72 | 1014.9 |
| 20260905142538 | 84 | 233 | 0.0 | 1.0 | 0.00 | 0.00 | 0.00 | 74 | 1015.0 |
| 20260905142032 | 84 | 263 | 0.0 | 1.0 | 0.00 | 0.00 | 0.00 | 74 | 1015.1 |
| 20260905141527 | 83 | 236 | 0.0 | 1.0 | 0.00 | 0.00 | 0.00 | 74 | 1015.0 |
| 20260905141023 | 82 | 253 | 0.0 | 1.0 | 0.00 | 0.00 | 0.00 | 77 | 1015.1 |
| 20260905140518 | 82 | 252 | 0.0 | 0.0 | 0.00 | 0.00 | 0.00 | 77 | 1015.1 |
| 20260905140017 | 82 | 254 | 0.0 | 0.0 | 0.00 | 0.00 | 0.00 | 78 | 1015.2 |
| 20260905135513 | 81 | 266 | 0.0 | 0.0 | 0.00 | 0.00 | 0.00 | 78 | 1015.2 |
| 20260905135008 | 81 | 248 | 0.0 | 0.0 | 0.00 | 0.00 | 0.00 | 79 | 1015.1 |
| 20260905134508 | 80 | 237 | 0.0 | 0.0 | 0.00 | 0.00 | 0.00 | 80 | 1015.2 |
| 20260905134007 | 80 | 245 | 0.0 | 0.0 | 0.00 | 0.00 | 0.00 | 81 | 1015.3 |
| 20260905133502 | 80 | 248 | 0.0 | 0.0 | 0.00 | 0.00 | 0.00 | 81 | 1015.4 |
| 20260905133001 | 79 | 247 | 0.0 | 0.0 | 0.00 | 0.00 | 0.00 | 81 | 1015.3 |
| 20260905132456 | 79 | 277 | 0.0 | 0.0 | 0.00 | 0.00 | 0.00 | 82 | 1015.3 |
| 20260905131951 | 79 | 247 | 0.0 | 0.0 | 0.00 | 0.00 | 0.00 | 82 | 1015.3 |
| 20260905131448 | 78 | 246 | 0.0 | 0.0 | 0.00 | 0.00 | 0.00 | 83 | 1015.4 |
| 20260905130948 | 78 | 244 | 0.0 | 0.0 | 0.00 | 0.00 | 0.00 | 84 | 1015.3 |
| 20260905130441 | 77 | 275 | 0.0 | 0.0 | 0.00 | 0.00 | 0.00 | 84 | 1015.3 |
| 20260905125941 | 77 | 257 | 0.0 | 0.0 | 0.00 | 0.00 | 0.00 | 84 | 1015.3 |
| 20260905125436 | 77 | 247 | 0.0 | 0.0 | 0.00 | 0.00 | 0.00 | 84 | 1015.3 |
| 20260905124931 | 76 | 246 | 0.0 | 0.0 | 0.00 | 0.00 | 0.00 | 84 | 1015.1 |
| 20260905124428 | 76 | 245 | 0.0 | 0.0 | 0.00 | 0.00 | 0.00 | 85 | 1015.2 |
| 20260905123928 | 76 | 245 | 0.0 | 0.0 | 0.00 | 0.00 | 0.00 | 85 | 1015.4 |
| 20260905123424 | 76 | 246 | 0.0 | 0.0 | 0.00 | 0.00 | 0.00 | 85 | 1015.2 |
| 20260905122915 | 76 | 250 | 0.0 | 0.0 | 0.00 | 0.00 | 0.00 | 85 | 1015.2 |
| 20260905122414 | 75 | 250 | 0.0 | 0.0 | 0.00 | 0.00 | 0.00 | 85 | 1015.0 |
| 20260905121909 | 75 | 250 | 0.0 | 0.0 | 0.00 | 0.00 | 0.00 | 85 | 1015.1 |
| 20260905121405 | 75 | 250 | 0.0 | 0.0 | 0.00 | 0.00 | 0.00 | 85 | 1015.1 |
| 20260905120903 | 75 | 250 | 0.0 | 0.0 | 0.00 | 0.00 | 0.00 | 84 | 1015.0 |
| 20260905120358 | 75 | 246 | 0.0 | 0.0 | 0.00 | 0.00 | 0.00 | 84 | 1014.8 |
| 20260905115853 | 75 | 246 | 0.0 | 0.0 | 0.00 | 0.00 | 0.00 | 84 | 1015.0 |
| 20260905115352 | 75 | 252 | 0.0 | 0.0 | 0.00 | 0.00 | 0.00 | 84 | 1015.0 |
| 20260905114847 | 75 | 252 | 0.0 | 0.0 | 0.00 | 0.00 | 0.00 | 84 | 1014.9 |
| 20260905114346 | 75 | 252 | 0.0 | 0.0 | 0.00 | 0.00 | 0.00 | 84 | 1015.0 |
| 20260905113845 | 75 | 247 | 0.0 | 0.0 | 0.00 | 0.00 | 0.00 | 84 | 1014.9 |
| 20260905113341 | 75 | 249 | 0.0 | 0.0 | 0.00 | 0.00 | 0.00 | 83 | 1015.0 |
| 20260905112836 | 75 | 249 | 0.0 | 0.0 | 0.00 | 0.00 | 0.00 | 83 | 1014.8 |
| 20260905112332 | 75 | 249 | 0.0 | 0.0 | 0.00 | 0.00 | 0.00 | 83 | 1014.8 |